Wind_Speed
8 20 20 19 20 17 16 16 15 15 17 17 17 17 17 14 13 13 15 15 19 14 16 16 15 14 16 16 15 14 13 15 17 17 16 16 15 14 13 14 16 15 17
11 21 20 18 19 18 17 16 15 16 15 16 16 16 15 14 12 14 16 15 16 15 16 17 17 16 13 15 15 12 14 17 17 16 16 17 17 16 16 17 17 14 14
14 20 19 19 19 18 17 17 15 15 16 15 15 15 14 13 12 14 15 16 17 16 16 18 18 17 16 15 15 15 13 15 14 13 13 11 11 12 12 12 12 11 11
13 17 17 19 18 19 19 18 17 15 14 14 14 14 13 14 14 14 14 16 18 17 17 19 18 17 16 16 16 15 14 12 11 12 11 10 9 10 10 10 10 10 10
14 18 18 18 16 18 19 19 18 18 15 14 14 14 15 14 15 15 14 16 17 16 17 21 17 16 16 15 15 14 12 11 10 10 10 10 10 9 10 10 9 10 11
13 16 17 18 18 18 18 18 18 18 17 16 13 13 14 15 15 15 16 16 15 16 20 19 17 17 16 14 13 11 11 10 10 10 10 9 9 9 9 9 9 9 10
13 16 15 15 18 18 17 16 16 16 16 16 16 14 14 14 15 16 16 15 16 18 18 15 17 18 16 12 12 12 10 10 10 10 10 10 8 9 9 9 9 9 9
11 15 16 15 14 15 16 16 14 15 15 15 16 15 14 14 14 15 17 17 19 21 18 13 16 17 17 15 14 12 11 9 10 10 10 9 9 8 7 7 8 8 8
8 12 15 15 15 15 15 15 16 16 14 15 16 16 15 14 14 14 16 17 20 21 18 14 16 16 16 15 14 13 10 8 9 9 10 9 10 8 7 6 6 7 7
5 11 14 15 16 15 15 14 15 16 18 18 15 17 16 16 14 15 17 18 20 20 17 15 18 17 16 15 14 14 12 8 8 8 9 8 9 8 7 6 5 5 5
13 8 15 18 18 17 16 16 15 16 15 16 18 17 16 16 16 16 18 19 20 18 16 15 19 18 17 14 12 14 13 11 9 8 8 9 8 7 6 5 5 4 4
21 18 12 17 19 19 19 18 17 15 15 15 16 19 19 18 18 18 19 20 20 18 16 16 19 19 18 15 14 14 15 13 11 10 9 9 9 9 7 6 5 4 4
23 22 18 14 19 21 21 21 18 16 16 15 16 17 18 19 19 19 19 21 20 19 17 15 18 19 21 21 19 16 15 15 14 13 11 10 10 10 9 8 7 6 5
27 25 22 16 15 20 23 23 20 19 17 15 14 16 17 20 20 22 21 21 21 22 22 19 19 20 20 22 20 18 17 15 15 13 13 12 11 11 11 11 10 9 7
29 27 23 19 16 17 21 24 22 20 17 15 15 16 17 19 20 23 26 27 26 25 23 22 22 21 20 21 21 20 19 18 17 15 14 14 14 14 13 13 12 11 10
30 28 24 21 18 17 19 21 23 19 15 16 17 18 18 17 16 18 21 25 28 26 25 24 24 23 21 20 20 20 19 19 20 18 17 16 16 16 15 15 15 14 12
30 27 25 22 18 18 21 22 20 21 9 21 21 18 17 15 14 15 19 23 27 28 27 24 25 25 23 20 21 21 20 20 20 20 19 18 17 19 18 17 16 15 15
32 28 24 21 19 18 21 22 28 26 19 14 15 21 19 15 15 17 20 24 29 29 27 27 25 25 25 21 21 23 21 20 21 21 22 22 21 21 22 21 19 18 16
32 26 24 21 19 20 20 23 24 25 28 29 27 25 19 18 19 20 21 23 25 28 29 28 28 27 22 23 21 24 22 22 23 24 24 24 23 22 22 23 22 21 19
28 25 26 23 21 21 20 21 20 20 22 25 26 23 20 20 19 19 22 24 24 24 25 25 25 29 21 21 24 26 24 23 24 26 28 26 27 26 25 25 25 24 23
29 26 25 25 21 20 22 20 18 18 22 24 24 23 22 21 20 19 20 23 24 25 25 23 21 22 30 29 21 23 30 30 27 29 30 29 29 29 27 27 26 27 26
24 27 24 26 18 20 25 20 13 14 15 18 16 18 17 17 18 21 21 25 23 21 22 22 19 19 18 24 14 9 5 13 20 32 36 33 32 31 31 31 28 29 27
23 26 21 23 28 20 26 20 14 9 8 8 11 13 16 16 18 20 21 22 22 22 24 26 27 24 19 19 27 13 2 7 10 20 30 36 36 35 34 32 31 29 29
16 17 16 17 21 29 24 17 13 11 7 7 8 9 9 10 12 16 21 24 23 24 27 27 29 31 27 22 20 31 33 12 5 5 12 21 29 31 37 36 33 31 30
8 5 8 12 12 8 8 9 9 8 8 10 11 15 16 17 16 17 18 22 24 26 30 31 30 33 35 32 29 22 29 34 24 7 7 4 13 28 35 36 33 33 32
19 18 11 11 15 14 14 10 7 2 4 8 12 14 15 15 15 16 18 21 24 25 26 28 31 33 35 35 34 33 29 16 24 18 7 8 6 10 24 28 30 30 30
Wind_Direction
196 173 178 171 166 167 165 159 159 156 159 155 154 155 154 156 153 150 148 147 140 143 145 138 132 132 130 120 118 115 114 112 113 118 109 102 108 101 99 103 93 99 90
182 172 182 174 172 175 173 166 163 160 161 157 160 163 160 157 161 157 155 154 151 144 139 138 136 137 135 128 123 133 120 118 117 118 115 102 98 94 91 96 91 91 86
179 173 178 179 172 180 179 173 169 166 167 166 164 169 171 165 168 164 165 161 157 153 146 144 139 137 135 135 133 130 126 126 125 128 124 104 99 99 98 100 91 87 84
180 176 175 181 176 180 183 178 174 172 175 173 173 177 183 174 173 167 166 167 162 160 154 146 147 141 139 138 136 136 138 136 133 133 126 112 106 103 103 103 100 96 90
186 185 180 177 180 184 184 185 183 181 179 181 183 183 194 183 176 171 172 167 165 171 156 156 153 144 143 139 138 139 142 141 137 134 129 123 117 113 110 108 101 99 98
199 189 187 182 184 188 193 189 192 190 187 185 192 194 197 187 184 185 182 185 182 179 161 162 159 152 152 152 150 146 143 145 142 136 128 124 117 120 114 109 105 102 96
203 195 194 198 198 196 195 198 201 200 200 195 193 198 201 199 196 195 191 195 187 176 168 164 165 160 158 160 162 161 151 145 146 140 135 130 123 123 119 115 109 105 101
226 208 203 202 212 211 210 206 203 209 210 207 204 204 209 208 208 203 198 195 183 178 180 178 174 168 162 157 156 159 155 153 151 148 144 138 135 130 124 118 113 108 102
217 232 220 210 207 213 216 218 213 209 216 221 219 216 215 215 214 209 201 201 189 185 187 191 187 179 173 168 166 164 161 156 160 158 155 152 145 145 139 128 119 115 114
261 231 237 231 221 220 215 218 224 223 217 221 223 223 220 217 214 213 205 203 197 193 194 194 190 189 188 181 179 175 170 168 170 169 168 166 153 162 159 148 139 133 130
5 316 237 231 230 225 223 221 223 226 225 223 220 223 222 216 213 210 204 201 202 204 203 204 196 196 198 195 190 187 183 182 183 184 184 179 171 183 181 176 165 155 150
339 344 313 254 232 232 227 227 223 225 222 220 223 222 220 221 216 212 209 205 207 208 205 211 205 201 202 200 198 197 200 195 196 200 201 196 192 201 204 202 193 189 180
319 320 332 284 241 230 231 228 224 229 223 222 226 220 221 220 217 211 208 204 203 203 199 205 206 205 208 205 208 208 212 212 209 211 210 211 213 213 220 222 217 212 211
306 308 318 307 263 232 230 227 224 229 230 226 227 225 224 222 219 215 209 205 201 200 203 206 207 213 213 212 215 219 221 223 221 221 219 219 222 220 224 228 231 227 225
288 294 303 306 280 246 233 227 221 223 231 236 231 226 223 226 226 221 216 212 207 209 209 214 217 217 216 220 219 224 228 231 234 236 237 232 230 229 225 231 236 235 235
278 281 290 293 287 262 238 233 219 209 236 247 241 228 220 220 228 230 228 221 213 213 220 227 221 216 220 223 227 233 235 237 238 243 245 245 237 235 234 230 232 237 239
277 273 275 280 282 262 238 230 210 186 209 238 236 230 217 210 219 230 230 226 222 218 225 233 229 220 221 226 234 239 238 242 245 246 249 251 246 240 238 238 237 233 235
275 270 263 265 270 258 244 231 217 206 196 197 239 227 221 236 237 238 239 234 229 226 226 227 228 219 218 224 240 247 247 249 249 253 254 252 250 246 241 240 240 238 236
267 265 257 254 258 254 239 234 229 229 223 222 220 225 233 240 245 245 246 245 240 232 228 229 226 227 227 233 250 255 254 256 258 259 259 255 253 246 244 244 243 241 241
269 261 260 247 248 250 234 229 228 226 229 224 227 236 242 257 254 254 254 248 243 234 227 228 226 228 233 240 247 249 259 266 267 261 260 258 254 249 247 247 242 240 241
271 272 265 252 237 230 220 214 215 220 230 239 245 245 244 247 257 251 251 245 237 232 234 230 227 220 222 230 244 261 263 261 267 266 262 256 252 250 247 244 244 242 242
263 271 266 259 231 230 219 199 194 214 231 243 248 251 251 249 254 250 244 243 237 234 230 231 224 228 228 230 219 230 267 262 262 258 257 254 254 250 249 247 244 244 245
273 262 259 249 228 235 229 197 198 202 235 243 240 243 246 249 251 251 248 244 242 240 237 238 232 216 225 234 237 225 211 249 261 249 242 245 247 246 247 247 247 243 245
282 274 252 238 220 211 210 200 192 199 202 240 261 257 265 265 267 265 262 258 250 248 245 244 239 228 219 224 230 236 239 263 230 255 240 239 240 239 244 245 243 241 239
358 276 240 207 194 183 177 191 211 233 252 267 275 282 279 273 272 268 266 269 261 254 252 252 249 238 234 234 230 228 231 235 247 241 259 267 258 250 242 242 240 240 239
39 61 85 99 96 108 111 105 87 44 309 298 291 286 283 291 293 292 281 272 265 257 251 250 249 244 237 229 227 226 225 219 225 226 237 241 234 268 243 239 242 239 239
Height
793 793 795 798 800 802 805 807 809 810 811 813 815 816 816 818 819 821 823 824 825 827 828 829 831 832 832 834 835 836 835 835 836 837 837 837 838 838 838 838 838 839 839
791 793 795 798 801 802 804 807 810 811 813 814 815 817 818 819 820 821 823 825 826 827 829 830 831 833 834 835 836 837 837 836 837 838 839 840 840 840 840 841 841 841 841
792 793 795 798 800 803 805 807 810 812 814 815 817 818 819 820 821 822 823 824 826 828 829 831 832 833 835 836 836 838 839 839 839 839 840 841 842 842 842 842 842 843 843
795 796 797 799 800 802 805 807 810 812 814 815 817 819 819 819 821 823 824 825 826 828 829 831 832 833 835 836 837 838 839 840 841 840 841 842 843 843 843 842 842 842 842
797 797 798 800 802 803 804 806 808 810 813 815 816 818 819 821 822 823 824 826 827 828 829 831 832 834 836 837 838 838 840 841 842 842 842 842 843 844 844 844 843 843 842
798 799 801 802 802 804 806 807 809 810 811 813 816 818 818 820 821 823 824 826 827 828 829 830 831 833 836 838 839 840 840 841 842 842 843 844 844 844 845 845 845 845 845
798 800 802 803 804 804 805 806 809 811 811 812 814 816 818 820 821 822 824 825 827 829 830 831 832 832 834 837 839 840 841 841 842 843 844 845 846 846 846 846 846 846 846
800 800 801 802 804 805 806 806 807 810 812 812 814 815 817 818 820 822 823 824 826 828 830 832 833 834 834 835 838 840 841 842 842 843 844 845 846 847 847 847 846 847 847
799 801 801 801 802 804 806 807 808 809 810 812 813 814 815 817 819 821 823 824 825 827 828 831 833 835 835 836 836 839 841 842 842 843 844 845 845 847 847 847 847 847 847
798 799 801 801 802 803 804 806 808 808 808 809 811 813 814 816 818 819 822 823 825 827 828 830 832 834 836 837 837 837 839 842 842 843 844 845 845 846 846 846 847 847 847
800 799 799 799 801 802 803 804 806 807 807 808 809 811 813 814 816 817 819 821 824 826 828 830 831 833 836 838 838 838 838 840 842 843 844 844 845 846 846 846 846 847 848
798 798 798 797 799 799 801 802 804 805 806 806 807 809 810 812 813 815 817 819 822 824 826 828 830 832 835 837 838 838 838 838 839 841 843 843 844 846 846 846 846 847 847
799 798 797 796 796 797 799 800 802 803 804 804 806 806 808 810 811 813 816 818 820 823 825 827 829 830 832 833 836 837 838 838 837 838 840 842 843 845 846 845 845 846 847
797 796 796 794 793 794 795 795 799 801 802 802 804 805 806 808 809 811 812 815 818 819 822 823 826 828 830 831 833 835 836 837 837 837 838 839 840 842 844 844 844 844 845
793 792 793 793 791 791 792 792 793 798 800 801 802 803 804 805 806 808 809 811 815 818 820 821 824 826 827 831 830 832 833 835 836 836 837 837 838 838 840 842 842 843 844
788 788 789 790 789 788 788 789 790 794 799 800 800 800 801 802 804 806 807 809 811 815 818 819 821 822 825 827 829 830 831 832 833 834 835 836 836 836 837 838 839 841 841
783 783 784 785 786 785 784 786 789 790 793 796 796 797 799 799 801 803 804 806 809 811 815 817 818 818 821 823 826 828 828 829 830 831 832 833 833 833 834 835 836 837 838
776 778 778 779 780 780 781 781 784 785 787 790 794 796 797 798 800 801 802 803 805 807 811 813 813 813 815 817 822 825 825 825 826 827 828 828 829 830 831 831 832 833 834
770 771 771 772 774 775 776 777 779 782 782 786 790 791 792 794 797 798 798 799 801 803 805 808 807 811 811 814 817 822 822 822 822 823 823 824 824 825 826 827 828 830 831
765 765 766 765 767 771 772 773 775 778 779 781 786 787 788 791 792 793 794 795 797 799 800 801 804 805 808 812 813 816 818 817 817 818 818 818 819 820 820 822 823 824 826
759 760 760 760 759 764 766 768 771 772 776 777 779 782 783 785 786 789 789 791 792 794 795 796 799 801 802 806 811 810 809 810 810 811 813 812 813 814 815 816 818 819 820
752 754 754 755 753 757 761 761 764 768 770 773 774 776 777 778 781 785 787 787 788 788 790 793 794 798 800 802 805 806 807 803 802 806 805 805 806 807 808 810 811 813 814
748 748 748 749 750 753 757 757 761 765 768 770 771 772 774 776 779 781 782 784 783 782 785 786 788 791 794 797 800 805 803 798 801 797 795 795 797 799 801 803 805 806 808
745 746 745 747 749 752 754 754 757 762 765 768 769 770 771 772 772 775 778 779 779 779 781 782 782 783 789 791 794 795 796 797 795 792 790 787 789 790 792 794 798 799 801
746 745 746 749 749 750 750 756 761 763 765 766 767 769 769 770 770 771 772 773 773 773 774 775 776 777 778 781 784 787 788 792 792 791 785 784 783 783 784 789 789 791 793
750 749 750 751 750 753 755 757 760 764 765 765 766 766 766 767 767 767 766 767 767 766 767 767 767 769 770 770 773 776 778 780 781 783 784 781 781 780 780 781 784 785 788